TimeEST,TemperatureF,Dew PointF,Humidity,Sea Level PressureIn,VisibilityMPH,Wind Direction,Wind SpeedMPH,Gust SpeedMPH,PrecipitationIn,Events,Conditions,WindDirDegrees,DateUTC
12:46 AM,33.8,24.8,70,30.28,10.0,NNE,4.6,-,N/A,,Mostly Cloudy,20,2012-12-26 05:46:00
12:54 AM,34.0,24.1,67,30.28,10.0,North,8.1,-,N/A,,Mostly Cloudy,10,2012-12-26 05:54:00
1:54 AM,33.1,24.1,70,30.29,10.0,NW,3.5,-,N/A,,Mostly Cloudy,320,2012-12-26 06:54:00
2:54 AM,32.0,24.1,73,30.27,10.0,North,4.6,-,N/A,,Mostly Cloudy,10,2012-12-26 07:54:00
3:54 AM,32.0,24.1,73,30.26,10.0,NNE,6.9,-,N/A,,Mostly Cloudy,30,2012-12-26 08:54:00
4:54 AM,32.0,24.1,73,30.24,10.0,NE,10.4,-,N/A,,Overcast,50,2012-12-26 09:54:00
5:54 AM,32.0,24.1,73,30.22,10.0,NE,11.5,-,N/A,,Overcast,50,2012-12-26 10:54:00
6:54 AM,32.0,24.1,73,30.24,10.0,NE,8.1,-,N/A,,Overcast,50,2012-12-26 11:54:00
7:54 AM,32.0,24.1,73,30.22,10.0,NE,8.1,-,N/A,,Overcast,40,2012-12-26 12:54:00
8:54 AM,32.0,24.1,73,30.22,10.0,NE,10.4,-,N/A,,Overcast,50,2012-12-26 13:54:00
9:36 AM,32.0,24.8,75,30.20,10.0,NE,10.4,-,N/A,,Overcast,50,2012-12-26 14:36:00
9:51 AM,32.0,24.8,75,30.19,10.0,NE,15.0,-,N/A,,Overcast,50,2012-12-26 14:51:00
9:54 AM,32.0,24.1,73,30.18,10.0,NE,12.7,-,N/A,,Overcast,50,2012-12-26 14:54:00
10:22 AM,32.0,24.8,75,30.16,10.0,NE,17.3,23.0,N/A,,Overcast,50,2012-12-26 15:22:00
10:54 AM,33.1,25.0,72,30.14,10.0,NE,15.0,20.7,N/A,,Overcast,50,2012-12-26 15:54:00
11:54 AM,33.1,25.0,72,30.08,10.0,ENE,15.0,23.0,0.00,,Overcast,60,2012-12-26 16:54:00
12:05 PM,33.8,24.8,70,30.07,10.0,NE,15.0,23.0,N/A,,Overcast,50,2012-12-26 17:05:00
12:39 PM,33.8,26.6,75,30.03,8.0,NE,19.6,24.2,0.00,Snow,Light Snow,50,2012-12-26 17:39:00
12:54 PM,34.0,27.0,75,30.02,7.0,NE,16.1,21.9,0.00,Snow,Light Ice Pellets,50,2012-12-26 17:54:00
1:03 PM,33.8,26.6,75,30.01,6.0,NE,19.6,28.8,0.01,Snow,Light Snow,50,2012-12-26 18:03:00
1:31 PM,33.8,28.4,81,29.98,5.0,NE,13.8,23.0,0.02,,Ice Pellets,50,2012-12-26 18:31:00
1:48 PM,33.8,28.4,81,29.94,5.0,NE,20.7,26.5,0.04,Rain,Light Rain,50,2012-12-26 18:48:00
1:54 PM,33.1,28.9,85,29.93,5.0,NE,19.6,27.6,0.05,Rain,Light Rain,50,2012-12-26 18:54:00
2:01 PM,33.8,30.2,87,29.93,4.0,NE,18.4,26.5,0.00,Rain,Rain,50,2012-12-26 19:01:00
2:05 PM,33.8,30.2,87,29.92,6.0,NE,18.4,25.3,0.00,Rain,Light Rain,50,2012-12-26 19:05:00
2:39 PM,33.8,30.2,87,29.89,5.0,NE,16.1,27.6,0.03,Rain,Light Rain,50,2012-12-26 19:39:00
2:52 PM,33.8,30.2,87,29.89,4.0,ENE,16.1,24.2,0.05,Rain,Light Rain,60,2012-12-26 19:52:00
2:54 PM,34.0,30.9,89,29.88,4.0,ENE,15.0,24.2,0.05,Rain,Rain,60,2012-12-26 19:54:00
3:17 PM,35.6,33.8,93,29.84,4.0,ENE,18.4,27.6,0.03,Rain,Light Rain,60,2012-12-26 20:17:00
3:54 PM,37.0,34.0,89,29.78,3.0,ENE,17.3,28.8,0.08,Rain,Rain,60,2012-12-26 20:54:00
4:11 PM,37.4,35.6,93,29.79,5.0,ENE,15.0,25.3,0.05,Rain,Light Rain,60,2012-12-26 21:11:00
4:39 PM,37.4,35.6,93,29.73,4.0,NE,18.4,28.8,0.08,Rain,Rain,50,2012-12-26 21:39:00
4:54 PM,39.0,37.0,93,29.74,4.0,ENE,16.1,24.2,0.11,Rain,Rain,60,2012-12-26 21:54:00
5:54 PM,45.0,42.1,90,29.67,4.0,ENE,19.6,29.9,0.15,Rain,Rain,70,2012-12-26 22:54:00
6:54 PM,45.0,42.1,90,29.64,3.0,ENE,18.4,26.5,0.20,Rain,Heavy Rain,70,2012-12-26 23:54:00
7:54 PM,45.0,42.1,90,29.57,4.0,NE,18.4,35.7,0.30,Rain,Heavy Rain,40,2012-12-27 00:54:00
8:54 PM,44.1,41.0,89,29.51,4.0,NE,19.6,31.1,0.24,Rain,Light Rain,50,2012-12-27 01:54:00
8:59 PM,44.6,41.0,87,29.51,8.0,NNE,17.3,31.1,0.00,Rain,Light Rain,30,2012-12-27 01:59:00
9:22 PM,42.8,39.2,87,29.50,10.0,NE,20.7,27.6,0.00,Rain,Light Rain,40,2012-12-27 02:22:00
9:54 PM,42.1,39.0,89,29.45,10.0,NE,26.5,38.0,0.00,Rain,Light Rain,40,2012-12-27 02:54:00
10:54 PM,42.1,39.0,89,29.38,10.0,NE,26.5,35.7,0.00,,Overcast,50,2012-12-27 03:54:00
11:14 PM,42.8,39.2,87,29.37,10.0,NE,28.8,44.9,N/A,,Overcast,50,2012-12-27 04:14:00
11:47 PM,42.8,39.2,87,29.36,10.0,NNE,11.5,44.9,0.00,,Mostly Cloudy,20,2012-12-27 04:47:00
11:54 PM,43.0,39.0,86,29.35,10.0,NE,29.9,42.6,0.00,,Overcast,40,2012-12-27 04:54:00